Starlink 11619

operational
NORAD ID: 63272 Int'l Des: 2025-053 Owner: SPXS Country: US Constellation: starlink
LEOCIRCULAR

Starlink 11619について

説明を読み込み中...

リアルタイム位置

3D地球を読み込み中...

次回通過

高度履歴

Altitude vs Time

uPlot chart will show altitude changes over time

軌道要素

1 63272U 25053H 25259.62816556 .00212612 00000-0 16200-2 0 9992
2 63272 43.0020 81.4581 0004547 279.4848 80.5505 15.70808489 30297
Epoch: Sep 16, 2025 • Age: 40 hours

現在のステータス

高度 358.2 km
速度 7.70 km/s
衛星直下点 31.91°N, 102.9°E
打ち上げ日 Mar 15, 2025
運用期間 0.5 years
タイプ internet

技術仕様

分類 Payload
質量 960.00 kg
乾燥質量 910.00 kg
総質量 960.00 kg
長さ 0.30 m
直径 4.10 m
スパン 29.00 m
形状 Box + pan
製造者 SPXS
バスタイプ Starlink V2MD
フェーズステータス In Orbit
所有者/国 SPXS/US

大規模コンステレーション

Loading constellations...